Year,Month,Day,Hour,Minute,Value (Times are PST for temperature in C)
2018,04,19,00,00,4.90
2018,04,19,00,01,4.90
2018,04,19,00,02,4.90
2018,04,19,00,03,4.90
2018,04,19,00,04,4.90
2018,04,19,00,05,4.90
2018,04,19,00,06,4.90
2018,04,19,00,07,4.90
2018,04,19,00,08,5.00
2018,04,19,00,09,4.90
2018,04,19,00,10,4.90
2018,04,19,00,11,4.90
2018,04,19,00,12,5.00
2018,04,19,00,13,5.10
2018,04,19,00,14,5.10
2018,04,19,00,15,5.10
2018,04,19,00,16,5.10
2018,04,19,00,17,5.10
2018,04,19,00,18,5.10
2018,04,19,00,19,5.10
2018,04,19,00,20,5.10
2018,04,19,00,21,5.10
2018,04,19,00,22,5.10
2018,04,19,00,23,5.10
2018,04,19,00,24,5.20
2018,04,19,00,25,5.20
2018,04,19,00,26,5.20
2018,04,19,00,27,5.30
2018,04,19,00,28,5.30
2018,04,19,00,29,5.30
2018,04,19,00,30,5.30
2018,04,19,00,31,5.30
2018,04,19,00,32,5.30
2018,04,19,00,33,5.30
2018,04,19,00,34,5.30
2018,04,19,00,35,5.30
2018,04,19,00,36,5.30
2018,04,19,00,37,5.30
2018,04,19,00,38,5.30
2018,04,19,00,39,5.30
2018,04,19,00,40,5.30
2018,04,19,00,41,5.30
2018,04,19,00,42,5.30
2018,04,19,00,43,5.30
2018,04,19,00,44,5.30
2018,04,19,00,45,5.30
2018,04,19,00,46,5.30
2018,04,19,00,47,5.40
2018,04,19,00,48,5.40
2018,04,19,00,49,5.40
2018,04,19,00,50,5.40
2018,04,19,00,51,5.40
2018,04,19,00,52,5.40
2018,04,19,00,53,5.40
2018,04,19,00,54,5.40
2018,04,19,00,55,5.40
2018,04,19,00,56,5.40
2018,04,19,00,57,5.40
2018,04,19,00,58,5.40
2018,04,19,00,59,5.40
2018,04,19,01,00,5.40
2018,04,19,01,01,5.40
2018,04,19,01,02,5.40
2018,04,19,01,03,5.40
2018,04,19,01,04,5.40
2018,04,19,01,05,5.40
2018,04,19,01,06,5.40
2018,04,19,01,07,5.40
2018,04,19,01,08,5.50
2018,04,19,01,09,5.50
2018,04,19,01,10,5.50
2018,04,19,01,11,5.40
2018,04,19,01,12,5.40
2018,04,19,01,13,5.40
2018,04,19,01,14,5.40
2018,04,19,01,15,5.30
2018,04,19,01,16,5.30
2018,04,19,01,17,5.30
2018,04,19,01,18,5.30
2018,04,19,01,19,5.30
2018,04,19,01,20,5.30
2018,04,19,01,21,5.40
2018,04,19,01,22,5.40
2018,04,19,01,23,5.40
2018,04,19,01,24,5.40
2018,04,19,01,25,5.40
2018,04,19,01,26,5.40
2018,04,19,01,27,5.50
2018,04,19,01,28,5.50
2018,04,19,01,29,5.50
2018,04,19,01,30,5.50
2018,04,19,01,31,5.50
2018,04,19,01,32,5.50
2018,04,19,01,33,5.50
2018,04,19,01,34,5.50
2018,04,19,01,35,5.40
2018,04,19,01,36,5.40
2018,04,19,01,37,5.40
2018,04,19,01,38,5.40
2018,04,19,01,39,5.40
2018,04,19,01,40,5.30
2018,04,19,01,41,5.30
2018,04,19,01,42,5.30
2018,04,19,01,43,5.30
2018,04,19,01,44,5.30
2018,04,19,01,45,5.30
2018,04,19,01,46,5.30
2018,04,19,01,47,5.30
2018,04,19,01,48,5.30
2018,04,19,01,49,5.30
2018,04,19,01,50,5.30
2018,04,19,01,51,5.30
2018,04,19,01,52,5.20
2018,04,19,01,53,5.20
2018,04,19,01,54,5.20
2018,04,19,01,55,5.20
2018,04,19,01,56,5.10
2018,04,19,01,57,5.10
2018,04,19,01,58,5.10
2018,04,19,01,59,5.10
2018,04,19,02,00,5.10
2018,04,19,02,01,5.10
2018,04,19,02,02,5.10
2018,04,19,02,03,5.10
2018,04,19,02,04,5.10
2018,04,19,02,05,5.10
2018,04,19,02,06,5.10
2018,04,19,02,07,5.10
2018,04,19,02,08,5.10
2018,04,19,02,09,4.90
2018,04,19,02,10,4.90
2018,04,19,02,11,4.90
2018,04,19,02,12,4.90
2018,04,19,02,13,4.90
2018,04,19,02,14,4.90
2018,04,19,02,15,4.90
2018,04,19,02,16,4.90
2018,04,19,02,17,4.90
2018,04,19,02,18,4.90
2018,04,19,02,19,4.90
2018,04,19,02,20,4.90
2018,04,19,02,21,4.90
2018,04,19,02,22,4.90
2018,04,19,02,23,4.90
2018,04,19,02,24,4.90
2018,04,19,02,25,4.90
2018,04,19,02,26,4.90
2018,04,19,02,27,4.90
2018,04,19,02,28,4.90
2018,04,19,02,29,4.80
2018,04,19,02,30,4.80
2018,04,19,02,31,4.80
2018,04,19,02,32,4.70
2018,04,19,02,33,4.70
2018,04,19,02,34,4.70
2018,04,19,02,35,4.70
2018,04,19,02,36,4.60
2018,04,19,02,37,4.60
2018,04,19,02,38,4.60
2018,04,19,02,39,4.60
2018,04,19,02,40,4.60
2018,04,19,02,41,4.60
2018,04,19,02,42,4.60
2018,04,19,02,43,4.60
2018,04,19,02,44,4.60
2018,04,19,02,45,4.50
2018,04,19,02,46,4.50
2018,04,19,02,47,4.50
2018,04,19,02,48,4.50
2018,04,19,02,49,4.50
2018,04,19,02,50,4.50
2018,04,19,02,51,4.60
2018,04,19,02,52,4.60
2018,04,19,02,53,4.60
2018,04,19,02,54,4.60
2018,04,19,02,55,4.60
2018,04,19,02,56,4.60
2018,04,19,02,57,4.60
2018,04,19,02,58,4.60
2018,04,19,02,59,4.60
2018,04,19,03,00,4.60
2018,04,19,03,01,4.60
2018,04,19,03,02,4.60
2018,04,19,03,03,4.60
2018,04,19,03,04,4.60
2018,04,19,03,05,4.60
2018,04,19,03,06,4.70
2018,04,19,03,07,4.70
2018,04,19,03,08,4.80
2018,04,19,03,09,4.80
2018,04,19,03,10,4.80
2018,04,19,03,11,4.80
2018,04,19,03,12,4.80
2018,04,19,03,13,4.80
2018,04,19,03,14,4.80
2018,04,19,03,15,4.70
2018,04,19,03,16,4.70
2018,04,19,03,17,4.70
2018,04,19,03,18,4.70
2018,04,19,03,19,4.60
2018,04,19,03,20,4.60
2018,04,19,03,21,4.60
2018,04,19,03,22,4.60
2018,04,19,03,23,4.60
2018,04,19,03,24,4.60
2018,04,19,03,25,4.50
2018,04,19,03,26,4.50
2018,04,19,03,27,4.50
2018,04,19,03,28,4.50
2018,04,19,03,29,4.60
2018,04,19,03,30,4.60
2018,04,19,03,31,4.60
2018,04,19,03,32,4.50
2018,04,19,03,33,4.50
2018,04,19,03,34,4.50
2018,04,19,03,35,4.50
2018,04,19,03,36,4.50
2018,04,19,03,37,4.50
2018,04,19,03,38,4.50
2018,04,19,03,39,4.50
2018,04,19,03,40,4.50
2018,04,19,03,41,4.60
2018,04,19,03,42,4.60
2018,04,19,03,43,4.60
2018,04,19,03,44,4.60
2018,04,19,03,45,4.60
2018,04,19,03,46,4.60
2018,04,19,03,47,4.60
2018,04,19,03,48,4.60
2018,04,19,03,49,4.60
2018,04,19,03,50,4.60
2018,04,19,03,51,4.50
2018,04,19,03,52,4.50
2018,04,19,03,53,4.50
2018,04,19,03,54,4.50
2018,04,19,03,55,4.50
2018,04,19,03,56,4.50
2018,04,19,03,57,4.50
2018,04,19,03,58,4.50
2018,04,19,03,59,4.60
2018,04,19,04,00,4.60
2018,04,19,04,01,4.60
2018,04,19,04,02,4.60
2018,04,19,04,03,4.60
2018,04,19,04,04,4.60
2018,04,19,04,05,4.60
2018,04,19,04,06,4.60
2018,04,19,04,07,4.60
2018,04,19,04,08,4.60
2018,04,19,04,09,4.60
2018,04,19,04,10,4.60
2018,04,19,04,11,4.60
2018,04,19,04,12,4.60
2018,04,19,04,13,4.60
2018,04,19,04,14,4.60
2018,04,19,04,15,4.60
2018,04,19,04,16,4.60
2018,04,19,04,17,4.60
2018,04,19,04,18,4.60
2018,04,19,04,19,4.60
2018,04,19,04,20,4.60
2018,04,19,04,21,4.60
2018,04,19,04,22,4.60
2018,04,19,04,23,4.60
2018,04,19,04,24,4.50
2018,04,19,04,25,4.50
2018,04,19,04,26,4.50
2018,04,19,04,27,4.40
2018,04,19,04,28,4.40
2018,04,19,04,29,4.40
2018,04,19,04,30,4.40
2018,04,19,04,31,4.40
2018,04,19,04,32,4.40
2018,04,19,04,33,4.40
2018,04,19,04,34,4.30
2018,04,19,04,35,4.30
2018,04,19,04,36,4.30
2018,04,19,04,37,4.30
2018,04,19,04,38,4.30
2018,04,19,04,39,4.30
2018,04,19,04,40,4.30
2018,04,19,04,41,4.40
2018,04,19,04,42,4.40
2018,04,19,04,43,4.40
2018,04,19,04,44,4.40
2018,04,19,04,45,4.50
2018,04,19,04,46,4.50
2018,04,19,04,47,4.50
2018,04,19,04,48,4.50
2018,04,19,04,49,4.50
2018,04,19,04,50,4.50
2018,04,19,04,51,4.50
2018,04,19,04,52,4.50
2018,04,19,04,53,4.50
2018,04,19,04,54,4.50
2018,04,19,04,55,4.50
2018,04,19,04,56,4.50
2018,04,19,04,57,4.50
2018,04,19,04,58,4.50
2018,04,19,04,59,4.50
2018,04,19,05,00,4.60
2018,04,19,05,01,4.60
2018,04,19,05,02,4.60
2018,04,19,05,03,4.60
2018,04,19,05,04,4.60
2018,04,19,05,05,4.60
2018,04,19,05,06,4.60
2018,04,19,05,07,4.60
2018,04,19,05,08,4.60
2018,04,19,05,09,4.60
2018,04,19,05,10,4.60
2018,04,19,05,11,4.60
2018,04,19,05,12,4.60
2018,04,19,05,13,4.60
2018,04,19,05,14,4.60
2018,04,19,05,15,4.60
2018,04,19,05,16,4.60
2018,04,19,05,17,4.60
2018,04,19,05,18,4.60
2018,04,19,05,19,4.60
2018,04,19,05,20,4.60
2018,04,19,05,21,4.60
2018,04,19,05,22,4.60
2018,04,19,05,23,4.60
2018,04,19,05,24,4.60
2018,04,19,05,25,4.60
2018,04,19,05,26,4.60
2018,04,19,05,27,4.60
2018,04,19,05,28,4.60
2018,04,19,05,29,4.60
2018,04,19,05,30,4.60
2018,04,19,05,31,4.60
2018,04,19,05,32,4.60
2018,04,19,05,33,4.60
2018,04,19,05,34,4.60
2018,04,19,05,35,4.60
2018,04,19,05,36,4.60
2018,04,19,05,37,4.60
2018,04,19,05,38,4.60
2018,04,19,05,39,4.60
2018,04,19,05,40,4.60
2018,04,19,05,41,4.60
2018,04,19,05,42,4.60
2018,04,19,05,43,4.60
2018,04,19,05,44,4.60
2018,04,19,05,45,4.60
2018,04,19,05,46,4.60
2018,04,19,05,47,4.60
2018,04,19,05,48,4.60
2018,04,19,05,49,4.60
2018,04,19,05,50,4.60
2018,04,19,05,51,4.60
2018,04,19,05,52,4.60
2018,04,19,05,53,4.60
2018,04,19,05,54,4.60
2018,04,19,05,55,4.60
2018,04,19,05,56,4.50
2018,04,19,05,57,4.50
2018,04,19,05,58,4.50
2018,04,19,05,59,4.50
2018,04,19,06,00,4.50
2018,04,19,06,01,4.50
2018,04,19,06,02,4.50
2018,04,19,06,03,4.60
2018,04,19,06,04,4.60
2018,04,19,06,05,4.60
2018,04,19,06,06,4.60
2018,04,19,06,07,4.60
2018,04,19,06,08,4.60
2018,04,19,06,09,4.60
2018,04,19,06,10,4.60
2018,04,19,06,11,4.60
2018,04,19,06,12,4.60
2018,04,19,06,13,4.60
2018,04,19,06,14,4.60
2018,04,19,06,15,4.60
2018,04,19,06,16,4.60
2018,04,19,06,17,4.60
2018,04,19,06,18,4.60
2018,04,19,06,19,4.60
2018,04,19,06,20,4.60
2018,04,19,06,21,4.60
2018,04,19,06,22,4.60
2018,04,19,06,23,4.60
2018,04,19,06,24,4.60
2018,04,19,06,25,4.60
2018,04,19,06,26,4.60
2018,04,19,06,27,4.60
2018,04,19,06,28,4.60
2018,04,19,06,29,4.50
2018,04,19,06,30,4.50
2018,04,19,06,31,4.50
2018,04,19,06,32,4.50
2018,04,19,06,33,4.50
2018,04,19,06,34,4.50
2018,04,19,06,35,4.50
2018,04,19,06,36,4.50
2018,04,19,06,37,4.50
2018,04,19,06,38,4.50
2018,04,19,06,39,4.50
2018,04,19,06,40,4.50
2018,04,19,06,41,4.50
2018,04,19,06,42,4.60
2018,04,19,06,43,4.60
2018,04,19,06,44,4.60
2018,04,19,06,45,4.60
2018,04,19,06,46,4.60
2018,04,19,06,47,4.60
2018,04,19,06,48,4.60
2018,04,19,06,49,4.60
2018,04,19,06,50,4.60
2018,04,19,06,51,4.70
2018,04,19,06,52,4.70
2018,04,19,06,53,4.70
2018,04,19,06,54,4.80
2018,04,19,06,55,4.80
2018,04,19,06,56,4.80
2018,04,19,06,57,4.80
2018,04,19,06,58,4.90
2018,04,19,06,59,4.90
2018,04,19,07,00,4.90
2018,04,19,07,01,4.90
2018,04,19,07,02,5.00
2018,04,19,07,03,5.10
2018,04,19,07,04,5.10
2018,04,19,07,05,5.10
2018,04,19,07,06,5.20
2018,04,19,07,07,5.20
2018,04,19,07,08,5.30
2018,04,19,07,09,5.30
2018,04,19,07,10,5.40
2018,04,19,07,11,5.40
2018,04,19,07,12,5.50
2018,04,19,07,13,5.60
2018,04,19,07,14,5.60
2018,04,19,07,15,5.70
2018,04,19,07,16,5.80
2018,04,19,07,17,5.90
2018,04,19,07,18,6.00
2018,04,19,07,19,6.10
2018,04,19,07,20,6.20
2018,04,19,07,21,6.20
2018,04,19,07,22,6.30
2018,04,19,07,23,6.40
2018,04,19,07,24,6.40
2018,04,19,07,25,6.40
2018,04,19,07,26,6.50
2018,04,19,07,27,6.60
2018,04,19,07,28,6.60
2018,04,19,07,29,6.60
2018,04,19,07,30,6.70
2018,04,19,07,31,6.70
2018,04,19,07,32,6.80
2018,04,19,07,33,6.80
2018,04,19,07,34,7.00
2018,04,19,07,35,7.10
2018,04,19,07,36,7.20
2018,04,19,07,37,7.40
2018,04,19,07,38,7.50
2018,04,19,07,39,7.70
2018,04,19,07,40,7.80
2018,04,19,07,41,7.90
2018,04,19,07,42,8.00
2018,04,19,07,43,8.20
2018,04,19,07,44,8.30
2018,04,19,07,45,8.50
2018,04,19,07,46,8.60
2018,04,19,07,47,8.70
2018,04,19,07,48,8.70
2018,04,19,07,49,8.80
2018,04,19,07,50,8.70
2018,04,19,07,51,8.70
2018,04,19,07,52,8.70
2018,04,19,07,53,8.70
2018,04,19,07,54,8.80
2018,04,19,07,55,8.80
2018,04,19,07,56,8.90
2018,04,19,07,57,8.90
2018,04,19,07,58,8.90
2018,04,19,07,59,8.90
2018,04,19,08,00,9.00
2018,04,19,08,01,9.00
2018,04,19,08,02,9.00
2018,04,19,08,03,9.10
2018,04,19,08,04,9.20
2018,04,19,08,05,9.20
2018,04,19,08,06,9.20
2018,04,19,08,07,9.20
2018,04,19,08,08,9.20
2018,04,19,08,09,9.20
2018,04,19,08,10,9.20
2018,04,19,08,11,9.10
2018,04,19,08,12,9.10
2018,04,19,08,13,9.00
2018,04,19,08,14,9.00
2018,04,19,08,15,8.90
2018,04,19,08,16,8.80
2018,04,19,08,17,8.70
2018,04,19,08,18,8.70
2018,04,19,08,19,8.70
2018,04,19,08,20,8.70
2018,04,19,08,21,8.70
2018,04,19,08,22,8.70
2018,04,19,08,23,8.80
2018,04,19,08,24,8.80
2018,04,19,08,25,8.90
2018,04,19,08,26,9.00
2018,04,19,08,27,9.00
2018,04,19,08,28,9.10
2018,04,19,08,29,9.20
2018,04,19,08,30,9.20
2018,04,19,08,31,9.30
2018,04,19,08,32,9.30
2018,04,19,08,33,9.40
2018,04,19,08,34,9.40
2018,04,19,08,35,9.40
2018,04,19,08,36,9.50
2018,04,19,08,37,9.50
2018,04,19,08,38,9.40
2018,04,19,08,39,9.30
2018,04,19,08,40,9.20
2018,04,19,08,41,9.20
2018,04,19,08,42,9.20
2018,04,19,08,43,9.10
2018,04,19,08,44,9.00
2018,04,19,08,45,8.90
2018,04,19,08,46,8.80
2018,04,19,08,47,8.70
2018,04,19,08,48,8.70
2018,04,19,08,49,8.70
2018,04,19,08,50,8.70
2018,04,19,08,51,8.70
2018,04,19,08,52,8.70
2018,04,19,08,53,8.70
2018,04,19,08,54,8.70
2018,04,19,08,55,8.70
2018,04,19,08,56,8.70
2018,04,19,08,57,8.80
2018,04,19,08,58,8.80
2018,04,19,08,59,8.80
2018,04,19,09,00,8.90
2018,04,19,09,01,9.00
2018,04,19,09,02,8.90
2018,04,19,09,03,8.90
2018,04,19,09,04,8.80
2018,04,19,09,05,8.80
2018,04,19,09,06,8.80
2018,04,19,09,07,8.70
2018,04,19,09,08,8.70
2018,04,19,09,09,8.70
2018,04,19,09,10,8.70
2018,04,19,09,11,8.70
2018,04,19,09,12,8.80
2018,04,19,09,13,8.80
2018,04,19,09,14,8.80
2018,04,19,09,15,8.90
2018,04,19,09,16,8.90
2018,04,19,09,17,8.90
2018,04,19,09,18,9.00
2018,04,19,09,19,9.00
2018,04,19,09,20,8.90
2018,04,19,09,21,8.90
2018,04,19,09,22,9.00
2018,04,19,09,23,8.90
2018,04,19,09,24,8.90
2018,04,19,09,25,8.90
2018,04,19,09,26,9.00
2018,04,19,09,27,9.10
2018,04,19,09,28,9.20
2018,04,19,09,29,9.30
2018,04,19,09,30,9.20
2018,04,19,09,31,9.20
2018,04,19,09,32,9.30
2018,04,19,09,33,9.40
2018,04,19,09,34,9.40
2018,04,19,09,35,9.50
2018,04,19,09,36,9.60
2018,04,19,09,37,9.70
2018,04,19,09,38,9.80
2018,04,19,09,39,9.70
2018,04,19,09,40,9.70
2018,04,19,09,41,9.60
2018,04,19,09,42,9.50
2018,04,19,09,43,9.50
2018,04,19,09,44,9.60
2018,04,19,09,45,9.60
2018,04,19,09,46,9.60
2018,04,19,09,47,9.60
2018,04,19,09,48,9.70
2018,04,19,09,49,9.70
2018,04,19,09,50,9.70
2018,04,19,09,51,9.70
2018,04,19,09,52,9.70
2018,04,19,09,53,9.80
2018,04,19,09,54,9.80
2018,04,19,09,55,9.80
2018,04,19,09,56,9.90
2018,04,19,09,57,9.90
2018,04,19,09,58,9.90
2018,04,19,09,59,9.90
2018,04,19,10,00,9.80
2018,04,19,10,01,9.90
2018,04,19,10,02,10.00
2018,04,19,10,03,10.10
2018,04,19,10,04,10.20
2018,04,19,10,05,10.20
2018,04,19,10,06,10.10
2018,04,19,10,07,10.10
2018,04,19,10,08,10.00
2018,04,19,10,09,9.90
2018,04,19,10,10,9.80
2018,04,19,10,11,9.70
2018,04,19,10,12,9.70
2018,04,19,10,13,9.70
2018,04,19,10,14,9.70
2018,04,19,10,15,9.70
2018,04,19,10,16,9.70
2018,04,19,10,17,9.70
2018,04,19,10,18,9.80
2018,04,19,10,19,9.90
2018,04,19,10,20,9.90
2018,04,19,10,21,10.00
2018,04,19,10,22,10.10
2018,04,19,10,23,10.00
2018,04,19,10,24,9.90
2018,04,19,10,25,10.00
2018,04,19,10,26,10.10
2018,04,19,10,27,10.10
2018,04,19,10,28,10.20
2018,04,19,10,29,10.20
2018,04,19,10,30,10.00
2018,04,19,10,31,9.90
2018,04,19,10,32,9.90
2018,04,19,10,33,9.90
2018,04,19,10,34,9.90
2018,04,19,10,35,9.90
2018,04,19,10,36,10.00
2018,04,19,10,37,10.10
2018,04,19,10,38,10.20
2018,04,19,10,39,10.10
2018,04,19,10,40,10.10
2018,04,19,10,41,10.00
2018,04,19,10,42,10.00
2018,04,19,10,43,10.10
2018,04,19,10,44,10.10
2018,04,19,10,45,10.10
2018,04,19,10,46,10.10
2018,04,19,10,47,10.10
2018,04,19,10,48,10.10
2018,04,19,10,49,10.10
2018,04,19,10,50,10.10
2018,04,19,10,51,10.20
2018,04,19,10,52,10.30
2018,04,19,10,53,10.40
2018,04,19,10,54,10.50
2018,04,19,10,55,10.60
2018,04,19,10,56,10.60
2018,04,19,10,57,10.60
2018,04,19,10,58,10.60
2018,04,19,10,59,10.60
2018,04,19,11,00,10.60
2018,04,19,11,01,10.70
2018,04,19,11,02,10.90
2018,04,19,11,03,11.00
2018,04,19,11,04,11.10
2018,04,19,11,05,11.20
2018,04,19,11,06,11.30
2018,04,19,11,07,11.30
2018,04,19,11,08,11.40
2018,04,19,11,09,11.40
2018,04,19,11,10,11.40
2018,04,19,11,11,11.40
2018,04,19,11,12,11.40
2018,04,19,11,13,11.40
2018,04,19,11,14,11.30
2018,04,19,11,15,11.20
2018,04,19,11,16,11.10
2018,04,19,11,17,10.90
2018,04,19,11,18,10.80
2018,04,19,11,19,10.60
2018,04,19,11,20,10.60
2018,04,19,11,21,10.60
2018,04,19,11,22,10.60
2018,04,19,11,23,10.70
2018,04,19,11,24,10.70
2018,04,19,11,25,10.80
2018,04,19,11,26,10.80
2018,04,19,11,27,10.80
2018,04,19,11,28,10.90
2018,04,19,11,29,10.90
2018,04,19,11,30,10.90
2018,04,19,11,31,10.80
2018,04,19,11,32,10.90
2018,04,19,11,33,11.00
2018,04,19,11,34,11.10
2018,04,19,11,35,11.30
2018,04,19,11,36,11.40
2018,04,19,11,37,11.50
2018,04,19,11,38,11.60
2018,04,19,11,39,11.60
2018,04,19,11,40,11.60
2018,04,19,11,41,11.60
2018,04,19,11,42,11.50
2018,04,19,11,43,11.40
2018,04,19,11,44,11.40
2018,04,19,11,45,11.20
2018,04,19,11,46,11.10
2018,04,19,11,47,11.10
2018,04,19,11,48,11.00
2018,04,19,11,49,10.90
2018,04,19,11,50,10.90
2018,04,19,11,51,10.90
2018,04,19,11,52,10.90
2018,04,19,11,53,11.00
2018,04,19,11,54,11.10
2018,04,19,11,55,11.10
2018,04,19,11,56,11.10
2018,04,19,11,57,11.10
2018,04,19,11,58,11.10
2018,04,19,11,59,11.10
2018,04,19,12,00,11.10
2018,04,19,12,01,11.20
2018,04,19,12,02,11.40
2018,04,19,12,03,11.40
2018,04,19,12,04,11.40
2018,04,19,12,05,11.20
2018,04,19,12,06,11.20
2018,04,19,12,07,11.20
2018,04,19,12,08,11.20
2018,04,19,12,09,11.10
2018,04,19,12,10,11.10
2018,04,19,12,11,11.10
2018,04,19,12,12,11.10
2018,04,19,12,13,11.10
2018,04,19,12,14,11.10
2018,04,19,12,15,11.10
2018,04,19,12,16,11.10
2018,04,19,12,17,11.20
2018,04,19,12,18,11.20
2018,04,19,12,19,11.30
2018,04,19,12,20,11.40
2018,04,19,12,21,11.60
2018,04,19,12,22,11.70
2018,04,19,12,23,11.80
2018,04,19,12,24,11.80
2018,04,19,12,25,11.80
2018,04,19,12,26,12.00
2018,04,19,12,27,12.10
2018,04,19,12,28,12.20
2018,04,19,12,29,12.30
2018,04,19,12,30,12.30
2018,04,19,12,31,12.50
2018,04,19,12,32,12.60
2018,04,19,12,33,12.80
2018,04,19,12,34,13.00
2018,04,19,12,35,13.20
2018,04,19,12,36,13.30
2018,04,19,12,37,13.40
2018,04,19,12,38,13.50
2018,04,19,12,39,13.50
2018,04,19,12,40,13.60
2018,04,19,12,41,13.60
2018,04,19,12,42,13.70
2018,04,19,12,43,13.70
2018,04,19,12,44,13.80
2018,04,19,12,45,13.80
2018,04,19,12,46,13.80
2018,04,19,12,47,13.80
2018,04,19,12,48,13.80
2018,04,19,12,49,13.80
2018,04,19,12,50,13.90
2018,04,19,12,51,13.90
2018,04,19,12,52,13.90
2018,04,19,12,53,13.80
2018,04,19,12,54,13.80
2018,04,19,12,55,13.80
2018,04,19,12,56,13.80
2018,04,19,12,57,13.90
2018,04,19,12,58,13.90
2018,04,19,12,59,13.90
2018,04,19,13,00,14.00
2018,04,19,13,01,14.10
2018,04,19,13,02,14.20
2018,04,19,13,03,14.20
2018,04,19,13,04,14.20
2018,04,19,13,05,14.20
2018,04,19,13,06,14.20
2018,04,19,13,07,14.20
2018,04,19,13,08,14.10
2018,04,19,13,09,14.20
2018,04,19,13,10,14.20
2018,04,19,13,11,14.30
2018,04,19,13,12,14.40
2018,04,19,13,13,14.50
2018,04,19,13,14,14.50
2018,04,19,13,15,14.60
2018,04,19,13,16,14.60
2018,04,19,13,17,14.60
2018,04,19,13,18,14.50
2018,04,19,13,19,14.50
2018,04,19,13,20,14.50
2018,04,19,13,21,14.50
2018,04,19,13,22,14.50
2018,04,19,13,23,14.40
2018,04,19,13,24,14.40
2018,04,19,13,25,14.50
2018,04,19,13,26,14.50
2018,04,19,13,27,14.50
2018,04,19,13,28,14.50
2018,04,19,13,29,14.50
2018,04,19,13,30,14.40
2018,04,19,13,31,14.40
2018,04,19,13,32,14.40
2018,04,19,13,33,14.30
2018,04,19,13,34,14.30
2018,04,19,13,35,14.30
2018,04,19,13,36,14.40
2018,04,19,13,37,14.40
2018,04,19,13,38,14.40
2018,04,19,13,39,14.50
2018,04,19,13,40,14.50
2018,04,19,13,41,14.50
2018,04,19,13,42,14.60
2018,04,19,13,43,14.60
2018,04,19,13,44,14.70
2018,04,19,13,45,14.80
2018,04,19,13,46,14.80
2018,04,19,13,47,14.80
2018,04,19,13,48,14.80
2018,04,19,13,49,14.90
2018,04,19,13,50,14.90
2018,04,19,13,51,14.80
2018,04,19,13,52,14.80
2018,04,19,13,53,14.80
2018,04,19,13,54,14.90
2018,04,19,13,55,14.90
2018,04,19,13,56,14.80
2018,04,19,13,57,14.70
2018,04,19,13,58,14.60
2018,04,19,13,59,14.40
2018,04,19,14,00,14.40
2018,04,19,14,01,14.40
2018,04,19,14,02,14.40
2018,04,19,14,03,14.40
2018,04,19,14,04,14.40
2018,04,19,14,05,14.40
2018,04,19,14,06,14.40
2018,04,19,14,07,14.50
2018,04,19,14,08,14.50
2018,04,19,14,09,14.50
2018,04,19,14,10,14.50
2018,04,19,14,11,14.40
2018,04,19,14,12,14.40
2018,04,19,14,13,14.30
2018,04,19,14,14,14.30
2018,04,19,14,15,14.30
2018,04,19,14,16,14.40
2018,04,19,14,17,14.50
2018,04,19,14,18,14.60
2018,04,19,14,19,14.60
2018,04,19,14,20,14.60
2018,04,19,14,21,14.60
2018,04,19,14,22,14.60
2018,04,19,14,23,14.50
2018,04,19,14,24,14.50
2018,04,19,14,25,14.50
2018,04,19,14,26,14.50
2018,04,19,14,27,14.50
2018,04,19,14,28,14.40
2018,04,19,14,29,14.40
2018,04,19,14,30,14.40
2018,04,19,14,31,14.40
2018,04,19,14,32,14.40
2018,04,19,14,33,14.30
2018,04,19,14,34,14.40
2018,04,19,14,35,14.50
2018,04,19,14,36,14.50
2018,04,19,14,37,14.50
2018,04,19,14,38,14.60
2018,04,19,14,39,14.60
2018,04,19,14,40,14.60
2018,04,19,14,41,14.60
2018,04,19,14,42,14.50
2018,04,19,14,43,14.60
2018,04,19,14,44,14.50
2018,04,19,14,45,14.50
2018,04,19,14,46,14.40
2018,04,19,14,47,14.40
2018,04,19,14,48,14.40
2018,04,19,14,49,14.40
2018,04,19,14,50,14.40
2018,04,19,14,51,14.50
2018,04,19,14,52,14.50
2018,04,19,14,53,14.50
2018,04,19,14,54,14.60
2018,04,19,14,55,14.60
2018,04,19,14,56,14.60
2018,04,19,14,57,14.60
2018,04,19,14,58,14.60
2018,04,19,14,59,14.60
2018,04,19,15,00,14.60
2018,04,19,15,01,14.70
2018,04,19,15,02,14.70
2018,04,19,15,03,14.80
2018,04,19,15,04,14.80
2018,04,19,15,05,14.80
2018,04,19,15,06,14.80
2018,04,19,15,07,14.90
2018,04,19,15,08,14.90
2018,04,19,15,09,14.90
2018,04,19,15,10,14.90
2018,04,19,15,11,14.80
2018,04,19,15,12,14.60
2018,04,19,15,13,14.50
2018,04,19,15,14,14.50
2018,04,19,15,15,14.50
2018,04,19,15,16,14.50
2018,04,19,15,17,14.60
2018,04,19,15,18,14.60
2018,04,19,15,19,14.50
2018,04,19,15,20,14.50
2018,04,19,15,21,14.50
2018,04,19,15,22,14.40
2018,04,19,15,23,14.40
2018,04,19,15,24,14.40
2018,04,19,15,25,14.30
2018,04,19,15,26,14.20
2018,04,19,15,27,14.20
2018,04,19,15,28,14.20
2018,04,19,15,29,14.20
2018,04,19,15,30,14.20
2018,04,19,15,31,14.20
2018,04,19,15,32,14.10
2018,04,19,15,33,14.00
2018,04,19,15,34,14.00
2018,04,19,15,35,13.80
2018,04,19,15,36,13.70
2018,04,19,15,37,13.70
2018,04,19,15,38,13.70
2018,04,19,15,39,13.70
2018,04,19,15,40,13.70
2018,04,19,15,41,13.80
2018,04,19,15,42,13.80
2018,04,19,15,43,13.80
2018,04,19,15,44,13.90
2018,04,19,15,45,13.90
2018,04,19,15,46,14.00
2018,04,19,15,47,14.00
2018,04,19,15,48,14.10
2018,04,19,15,49,14.10
2018,04,19,15,50,14.20
2018,04,19,15,51,14.20
2018,04,19,15,52,14.30
2018,04,19,15,53,14.50
2018,04,19,15,54,14.50
2018,04,19,15,55,14.50
2018,04,19,15,56,14.50
2018,04,19,15,57,14.60
2018,04,19,15,58,14.60
2018,04,19,15,59,14.60
2018,04,19,16,00,14.70
2018,04,19,16,01,14.70
2018,04,19,16,02,14.80
2018,04,19,16,03,14.80
2018,04,19,16,04,14.80
2018,04,19,16,05,14.90
2018,04,19,16,06,14.90
2018,04,19,16,07,14.90
2018,04,19,16,08,14.80
2018,04,19,16,09,14.90
2018,04,19,16,10,14.90
2018,04,19,16,11,14.90
2018,04,19,16,12,14.80
2018,04,19,16,13,14.70
2018,04,19,16,14,14.70
2018,04,19,16,15,14.60
2018,04,19,16,16,14.60
2018,04,19,16,17,14.60
2018,04,19,16,18,14.60
2018,04,19,16,19,14.60
2018,04,19,16,20,14.60
2018,04,19,16,21,14.70
2018,04,19,16,22,14.80
2018,04,19,16,23,14.80
2018,04,19,16,24,14.80
2018,04,19,16,25,14.80
2018,04,19,16,26,14.80
2018,04,19,16,27,14.80
2018,04,19,16,28,14.80
2018,04,19,16,29,14.80
2018,04,19,16,30,14.80
2018,04,19,16,31,14.80
2018,04,19,16,32,14.80
2018,04,19,16,33,14.80
2018,04,19,16,34,14.80
2018,04,19,16,35,14.80
2018,04,19,16,36,14.80
2018,04,19,16,37,14.80
2018,04,19,16,38,14.80
2018,04,19,16,39,14.80
2018,04,19,16,40,14.70
2018,04,19,16,41,14.70
2018,04,19,16,42,14.60
2018,04,19,16,43,14.60
2018,04,19,16,44,14.60
2018,04,19,16,45,14.60
2018,04,19,16,46,14.60
2018,04,19,16,47,14.50
2018,04,19,16,48,14.50
2018,04,19,16,49,14.50
2018,04,19,16,50,14.40
2018,04,19,16,51,14.40
2018,04,19,16,52,14.40
2018,04,19,16,53,14.40
2018,04,19,16,54,14.40
2018,04,19,16,55,14.50
2018,04,19,16,56,14.50
2018,04,19,16,57,14.50
2018,04,19,16,58,14.60
2018,04,19,16,59,14.60
2018,04,19,17,00,14.50
2018,04,19,17,01,14.40
2018,04,19,17,02,14.30
2018,04,19,17,03,14.30
2018,04,19,17,04,14.30
2018,04,19,17,05,14.40
2018,04,19,17,06,14.40
2018,04,19,17,07,14.40
2018,04,19,17,08,14.50
2018,04,19,17,09,14.50
2018,04,19,17,10,14.60
2018,04,19,17,11,14.60
2018,04,19,17,12,14.70
2018,04,19,17,13,14.70
2018,04,19,17,14,14.80
2018,04,19,17,15,14.80
2018,04,19,17,16,14.80
2018,04,19,17,17,14.80
2018,04,19,17,18,14.70
2018,04,19,17,19,14.70
2018,04,19,17,20,14.70
2018,04,19,17,21,14.70
2018,04,19,17,22,14.70
2018,04,19,17,23,14.70
2018,04,19,17,24,14.80
2018,04,19,17,25,14.80
2018,04,19,17,26,14.80
2018,04,19,17,27,14.80
2018,04,19,17,28,14.80
2018,04,19,17,29,14.80
2018,04,19,17,30,14.80
2018,04,19,17,31,14.80
2018,04,19,17,32,14.70
2018,04,19,17,33,14.70
2018,04,19,17,34,14.70
2018,04,19,17,35,14.70
2018,04,19,17,36,14.70
2018,04,19,17,37,14.60
2018,04,19,17,38,14.50
2018,04,19,17,39,14.50
2018,04,19,17,40,14.40
2018,04,19,17,41,14.40
2018,04,19,17,42,14.30
2018,04,19,17,43,14.30
2018,04,19,17,44,14.20
2018,04,19,17,45,14.20
2018,04,19,17,46,14.20